sat.trackr.live / text

‹ back to catalog

STARLINK-3197

NORAD 49757 · 2021-115AK

PAYLOAD ACTIVE UNKNOWN

§ Identity

Operator
Country
US
Launch date
2021-12-02
Launch site
AFETR
Launch vehicle
Mass (kg)
RCS (m²)

Purposes: comms

External: N2YO · Heavens-Above · Gunter

§ Orbital elements

Epoch: 2026-09-12T00:33:39.055680Z

Period
93.90 min
Inclination
53.1617°
Eccentricity
0.0000933
Mean motion
15.33534716 rev/d
Perigee alt
464.6 km
Apogee alt
465.9 km
Semi-major
6,843.4 km
B*
3.5735e-5
RAAN
9.5134°
Arg perigee
91.7512°
Mean anomaly
268.3597°
Rev number
26,398

§ Raw data

STARLINK-31971 49757U 21115AK  26255.02336870  .00000802  00000+0  35735-4 0  99972 49757  53.1617   9.5134 0000933  91.7512 268.3597 15.33534716263985

JSON: /api/v1/satellites/49757 · /tle

For live sub-satellite position, see the globe view (requires WebGL).

§ Visibility from observer

Set your observer location to see the next 7 days of passes ≥ 10°. The values pass through the URL so the page stays shareable.

No JS? Fill the form by hand. The geolocation button needs JavaScript.